Location: *
(33.8649°S, 62.1526°E)
Time: 10:11:38
(UTC+00:00)

BREEZE-M DEB - Visible Passes

Search period start: 14 May 2021 00:00
Search period end: 24 May 2021 00:00
Orbit: 751 x 34965 km, 45.0° (Epoch: 11 May)

Date Brightness Start Highest point End Pass type
(mag) Time Alt. Az. Time Alt. Az. Time Alt. Az.
14 May 8.4 20:29:37 16° NNE 20:29:37 16° NNE 20:38:12 10° NNE visible
16 May 5.3 13:29:05 10° W 13:40:28 38° SSW 13:44:50 10° SE visible
17 May 8.4 21:30:56 17° N 21:30:56 17° N 21:47:24 10° N visible
18 May 8.3 04:46:04 10° NNE 06:49:39 25° NE 07:10:37 10° E visible
19 May 4.9 14:39:49 10° WSW 14:45:10 26° S 14:46:04 25° SSE visible
20 May 7.5 22:33:46 10° NNW 22:35:17 10° NNW 22:36:58 10° NNW visible
21 May 8.6 19:23:54 10° NNE 19:23:54 10° NNE 19:24:19 10° NNE visible
22 May 5.7 15:45:46 10° SW 15:47:17 18° SW 15:47:17 18° SW visible
